Regional Weather Roundup
Issued by NWS

Home | Current Version | Previous Version | Graphics & Text | Print | Product List | Glossary On
Versions: 1 2 3 4 5 6 7 8 9 10 11 12 13 14 15 16 17 18 19 20 21 22 23 24 25 26 27 28 29 30 31 32 33 34 35 36 37 38 39 40 41 42 43 44 45 46 47 48 49 50
000
ASUS43 KFSD 211002
RWRSD

WEATHER ROUNDUP FOR SOUTH DAKOTA
NATIONAL WEATHER SERVICE SIOUX FALLS SD
500 AM CDT SAT APR 21 2018

NOTE: "FAIR" INDICATES FEW OR NO CLOUDS BELOW 12,000 FEET WITH NO
SIGNIFICANT WEATHER AND/OR OBSTRUCTIONS TO VISIBILITY.


SDZ001>005-009-010-012>017-211100-
NORTHWEST AND NORTH CENTRAL SOUTH DAKOTA

CITY           SKY/WX    TMP DP  RH WIND       PRES   REMARKS
BUFFALO          N/A     41  36  82 S20       30.13R
FAITH            N/A     40  39  97 S17       30.25R
MOBRIDGE       CLOUDY    43  38  82 SE10      30.28S
$$

SDZ012>016-024>037-041>051-057-063-072>074-211100-
SOUTHWEST AND SOUTH CENTRAL SOUTH DAKOTA

CITY           SKY/WX    TMP DP  RH WIND       PRES   REMARKS
RAPID CTY ARPT CLOUDY    38  37  97 S12       30.23S
PIERRE         LGT RAIN  40  40 100 SE3       30.30F
CUSTER         FOG       32  30  92 VRB3      30.19S VSB 1/2
ELLSWORTH AFB  CLOUDY    39  39 100 S17       30.21F
PHILIP         LGT RAIN  40  40 100 E3        30.29F FOG
PINE RIDGE     CLOUDY    39  37  92 SE6       30.23F
SPEARFISH      FAIR      34  30  86 CALM      30.17S
WINNER         CLOUDY    41  35  79 CALM      30.29F
$$

SDZ004>011-016>023-039-040-211100-
NORTHEAST SOUTH DAKOTA

CITY           SKY/WX    TMP DP  RH WIND       PRES   REMARKS
ABERDEEN       CLOUDY    40  37  89 S7        30.34S
WATERTOWN      CLOUDY    37  32  82 SE3       30.35F
BROOKINGS      CLOUDY    37  32  82 E5        30.37S
SISSETON         N/A     35  34  96 E6        30.35F
$$

SDZ017-020-022-023-036>040-048>070-211100-
SOUTHEAST SOUTH DAKOTA

CITY           SKY/WX    TMP DP  RH WIND       PRES   REMARKS
SIOUX FALLS    CLOUDY    38  31  76 E7        30.36F
HURON          CLOUDY    40  36  86 SE8       30.33F
CHAMBERLAIN    CLOUDY    41  41 100 E6        30.32S
MITCHELL       CLOUDY    38  35  89 E8        30.35S
YANKTON        CLOUDY    40  36  86 NE8       30.32F
$$

ABBREVIATIONS USED IN REMARKS
   TC - TEMPERATURE IN CELSIUS
  WCI - WIND CHILL INDEX
   HX - HEAT INDEX
  VSB - VISIBILITY





USA.gov is the U.S. government's official web portal to all federal, state and local government web resources and services.